Showing default

RISAT-2BR2, 46905

Orbit data source: Space-Track

RISAT-2BR2, 46905 is a payload satellite owned by ISRO (IN) in LEO that was launched on Sat, 07 Nov 2020 UTC via a PSLV-DL launch vehicle from the Sirharikota (SRI). Payload-class satellites include a variety of spacecraft equipped with specific instruments for various scientific and technological missions. These include communications satellites like Starlink; space stations such as the ISS; scientific satellites like the Hubble; Earth observation satellites from companies like Planet Labs, Umbra, and HawkEye 360; GPS; miniature CubeSats for education and research; and military/defense satellites.

Loading next visibility...
Identifier
46905, 2020-081A
Orbit
LEO
Country
Flag of ININ / IND
Related business
Manufacturer
ISRO
Mission
Operational Civil Radar Imaging
Bus & Motor
TECHSAR, Unknown motor
Mass
628 kg wet, 628 kg dry
Launch date (UTC)
2020-11-07 (6 years ago)
Launch vehicle
PSLV-DL
Launch site
Sirharikota (SRI)
Object type
Payload
Rocket body
Debris
Shape & HBR
Hex Cyl + 2 Pan + 1 Dish, Unknown HBR
Radar Cross Section
2.910 m², Large (>1 m²)

Expand to show TLE details & history
Last TLE update: 22 hours ago

TLE from 22 hours ago
0 RISAT-2BR2
1 46905U 20081A   26172.53735005  .00001397  00000-0  11142-3 0  9993
2 46905  36.8973 198.4446 0011308 201.0873 158.9403 15.01639143308129
Epoch: 2026-06-21T12:53Z
TLE epoch observation values (Epoch: 2026-06-21T12:53:47.044Z)
Latitude
-0°
Longitude
95.26238°
Altitude
568.281 km
Speed
7.575 km/s
True Right ascension
13h 13m 46s
True Declination
0° 00' 00"
Sunlit
Object was in daylight at epoch
Visualization orbit readout
Latitude
Unknown
Longitude
Unknown
Altitude
Unknown
Speed
Unknown
Apparent Right ascension
Unknown
Apparent Declination
Unknown
Sunlit
N/A
Visualization observer readout
Local Sidereal Time
21:38:46
Azimuth
Unknown
Elevation
Unknown
Doppler factor
Unknown
Orbital elements
Apogee altitude
572.612 km
Perigee altitude
556.91 km
Semi-major axis
6,942.898 km
Eccentricity
0.00113
Inclination
36.8973°
RAAN
198.4446°
Arg. of periapsis
201.0873°
True anomaly
158.9868°
Mean anomaly
158.9403°
Eccentric anomaly
158.96356°
Mean motion
3.75173 °/min
Orbital period
95.96 mins
BSTAR
0.00011142
Loading maneuver chart data...
Computing Atmospheric mass density...
Loading historical data...
Loading historical data...
Loading historical data...
Loading historical data...
Loading historical data...
Loading historical data...
Loading historical data...

Documentation

Showing up to 5 results
|